SCP
0 0 0 0 0 0 0 0 0 0 0 0 0 0 0 0 0 -0 0 0 -0 -0 -0 -0 -0 -0 -0 -0 0 0 -0 -0 -0 -0 -0 0 -0 -0 -0 -0 -0 -0 -0 -0 -0 -0 -0 -0 -0
0 0 0 0 0 0 0 0 0 0 0 0 0 0 0 0 0 0 0 0 -0 0 0 0 -0 -0 -0 -0 -0 -0 -0 -0 -0 -0 -0 -0 -0 -0 -0 -0 -0 -0 -0 -0 -0 -0 -0 -0 -0
0 0 0 0 0 0 0 0 0 0 -0 0 0 0 0 0 0 0 0 0 0 0 0 0 -0 -0 -0 -0 -0 -0 -0 -0 -0 -0 -0 -0 -0 -0 -0 -0 -0 -0 -0 -0 -0 -0 -0 -0 -0
0 0 0 0 0 0 0 0 0 0 0 0 0 0 0 0 0 0 0 0 0 0 0 0 -0 -0 -0 -0 -0 -0 -0 -0 -0 -0 -0 -0 -0 -0 -0 -0 -0 -0 -0 -0 -0 -0 -0 -0 -0
0 0 0 0 0 0 0 0 0 0 0 0 0 0 0 0 0 0 0 0 0 0 0 0 0 -0 -0 -0 -0 -0 -0 -0 -0 -0 -0 -0 -0 -0 -0 -0 -0 -0 -0 -0 -0 0 0 0 0
0 0 0 0 0 0 0 0 0 0 0 0 0 0 0 0 0 0 0 0 0 0 0 0 0 0 0 -0 -0 -0 -0 -0 -0 -0 -0 -0 0 0 -0 -0 0 0 0 0 0 0 0 0 0
0 0 0 0 0 0 0 0 0 0 0 0 0 0 0 0 0 0 0 0 0 0 0 0 0 0 0 0 0 0 -0 -0 -0 -0 -0 -0 -0 -0 0 0 0 0 0 0 0 0 0 0 0
0 0 0 0 0 0 0 0 0 0 0 0 0 0 0 0 0 0 0 0 0 0 0 0 0 0 0 0 0 0 0 0 0 -0 -0 -0 -0 -0 -0 -0 0 0 0 0 0 0 0 0 0
0 0 0 0 0 0 0 0 0 0 0 0 0 0 0 0 0 0 0 0 0 0 0 0 0 0 0 0 0 0 0 0 0 0 0 0 0 0 0 0 0 0 0 0 0 0 0 0 -0
0 0 0 0 0 0 -0 0 0 0 0 0 0 0 0 0 0 0 0 0 0 0 0 0 0 0 0 0 0 0 0 0 0 0 0 0 0 0 0 0 0 0 0 0 0 0 0 0 0
0 0 0 0 0 0 -0 -0 0 0 0 0 0 0 0 0 0 0 0 0 0 0 0 0 0 0 0 0 0 0 0 0 0 0 0 0 0 0 0 0 0 0 0 0 0 0 0 0 0
0 0 0 0 0 0 -0 -0 0 0 0 0 0 0 0 0 0 0 0 0 0 0 0 0 0 0 0 0 0 0 0 0 0 0 0 0 0 0 0 0 0 0 0 0 0 0 0 0 0
0 0 0 0 0 0 0 0 -0 0 0 0 0 0 0 0 0 0 0 0 0 0 0 0 0 0 0 0 0 0 0 0 0 0 0 0 0 0 0 0 0 0 0 0 0 0 0 0 0
0 0 0 0 0 0 0 0 0 -0 0 0 0 0 0 0 0 0 0 0 0 0 0 0 0 0 0 0 0 0 0 0 0 0 0 0 0 0 0 0 0 0 0 0 0 0 0 0 0
0 0 0 0 0 0 0 0 0 0 0 0 0 0 0 0 0 0 0 0 0 0 0 0 0 0 0 0 0 0 0 0 0 0 0 0 0 0 0 0 0 0 0 0 0 0 0 0 0
0 0 0 0 0 0 -0 0 0 0 0 0 0 0 0 0 0 0 0 0 0 0 0 0 0 0 0 0 0 0 0 0 0 0 0 0 0 0 0 0 0 0 0 0 0 0 0 0 0
0 0 0 0 0 -0 0 0 0 0 -0 0 0 0 0 0 0 0 0 0 0 0 0 0 0 0 0 0 0 0 0 0 0 0 0 0 0 0 0 0 0 0 0 0 0 0 0 0 0
0 0 0 0 -0 0 -0 -0 -0 0 -0 0 0 0 0 0 0 0 0 0 0 0 0 0 0 0 0 0 0 0 0 0 0 0 0 0 0 0 0 0 0 0 0 0 0 0 0 0 0
0 0 0 0 0 0 0 0 0 0 0 0 0 0 0 0 0 0 0 0 0 0 0 0 0 0 0 0 0 0 0 0 0 0 0 0 0 0 0 0 0 0 0 0 0 0 0 0 0
0 0 0 0 0 -0 -0 -0 -0 0 0 0 0 0 0 0 0 0 0 0 0 0 0 0 0 0 0 0 0 0 0 0 0 0 0 0 0 0 0 0 0 0 0 0 0 0 0 0 0
0 0 0 0 0 0 -0 0 0 0 0 -0 0 0 0 0 0 0 0 0 0 0 0 0 0 0 0 0 0 0 0 0 0 0 0 0 0 0 0 0 0 0 0 0 0 0 0 0 0
0 0 0 0 0 0 0 0 0 -0 -0 0 0 0 0 0 0 0 0 1 0 0 0 0 0 0 0 0 0 0 0 0 0 0 0 0 0 0 0 0 0 0 0 0 0 0 0 0 0
0 0 0 0 0 0 -0 0 -0 0 -0 -0 0 0 0 0 0 0 0 1 1 1 0 0 0 0 0 0 0 0 0 0 0 0 0 0 0 0 0 0 0 0 0 0 0 0 0 0 0
0 0 0 0 0 0 0 -0 -0 0 -0 -0 -0 0 0 0 0 0 0 0 1 0 1 1 0 0 0 0 0 0 0 0 0 0 0 0 0 0 0 0 0 0 0 0 0 0 0 0 0
0 0 0 0 0 0 -0 -0 -0 0 0 -0 -0 0 0 0 0 0 0 0 0 0 0 0 0 0 0 0 0 0 0 0 0 0 0 0 0 0 0 0 0 0 0 0 0 0 0 0 0
0 0 0 0 0 0 0 0 -0 0 0 -0 -0 0 0 0 0 0 0 0 0 0 0 0 0 0 0 0 0 0 0 0 0 0 0 0 0 0 0 0 0 0 0 0 0 0 0 0 0
0 0 0 0 0 0 0 -0 -0 0 0 -0 -0 -0 0 0 0 0 0 0 0 0 0 0 0 0 0 0 0 0 0 0 0 0 0 0 0 -0 0 0 0 0 0 0 0 0 0 0 0
0 0 0 0 0 0 0 0 -0 -0 -0 0 -0 -0 0 0 0 0 0 0 0 0 0 0 0 0 0 0 0 0 0 0 0 -0 0 0 0 0 0 0 0 0 0 0 0 0 0 0 0
0 0 0 0 0 0 0 0 -0 -0 -0 0 -0 -0 0 0 0 0 0 0 0 0 0 0 0 0 0 0 0 0 0 -0 0 -0 -0 -0 0 0 0 0 0 0 0 0 0 0 0 0 0
0 0 0 0 0 0 0 0 -0 -0 -0 -0 -0 -0 0 0 0 0 0 0 0 0 0 0 0 0 0 0 0 0 0 0 0 -0 0 -0 0 0 0 0 0 0 0 0 0 0 0 0 0
Wind_Speed_500mb
16 17 22 4 6 8 5 8 9 14 2 5 2 5 9 6 6 7 17 37 46 54 56 51 47 43 40 35 39 44 40 39 34 33 36 38 31 28 23 21 19 17 16 12 13 11 13 18 19
15 13 9 4 7 4 7 7 10 8 8 20 13 9 8 2 5 15 40 31 49 51 55 49 46 45 41 40 47 43 39 34 28 28 39 38 30 27 22 17 16 15 13 13 18 18 18 19 17
12 10 2 7 5 8 7 4 10 19 15 12 8 7 3 4 8 30 23 37 54 51 52 48 44 44 43 45 43 39 36 29 26 25 42 42 30 28 23 16 15 15 17 17 23 22 20 18 17
3 2 6 6 10 9 5 14 16 25 11 9 11 10 6 8 6 25 34 36 55 51 51 49 47 44 45 51 45 43 39 32 32 32 44 39 33 24 17 13 11 15 18 18 22 24 22 20 17
3 1 5 2 8 5 7 9 23 14 12 13 4 8 3 13 16 20 28 37 49 54 51 50 47 44 46 56 51 48 40 34 35 32 34 32 29 23 17 11 13 15 16 17 19 19 18 16 13
4 4 4 7 9 3 10 17 25 15 22 22 4 14 11 18 15 23 26 38 44 51 53 49 46 44 46 55 51 46 41 40 37 33 29 26 23 20 18 16 14 15 15 15 15 15 15 13 11
10 7 7 5 6 7 4 38 12 20 22 18 5 7 6 24 25 22 33 39 45 51 53 51 47 46 46 51 47 45 45 43 38 29 26 25 23 21 19 17 17 16 15 14 13 12 10 9 8
4 8 2 5 5 7 24 43 20 28 15 23 6 8 9 34 33 30 40 37 42 55 53 51 49 49 48 51 50 47 47 42 33 27 23 22 23 23 21 20 18 17 16 15 13 11 9 9 8
4 8 3 6 5 10 41 23 30 40 22 35 15 11 11 26 39 45 48 45 49 56 55 54 54 53 51 50 49 45 45 38 32 27 21 21 21 23 23 20 19 20 18 14 12 12 12 11 10
9 7 11 4 8 7 13 22 30 26 50 22 27 30 19 32 48 58 60 57 59 62 60 57 56 58 54 49 48 48 46 41 36 28 25 23 19 22 24 20 18 18 17 15 13 13 12 11 9
7 5 8 4 20 35 12 19 36 15 13 11 45 64 26 42 53 61 61 58 58 58 62 61 59 60 59 58 57 55 50 44 37 31 29 28 27 26 26 23 20 18 18 16 14 13 11 10 8
4 11 13 20 40 34 27 24 20 28 32 49 53 44 31 48 58 65 65 65 60 59 60 62 61 61 63 63 63 57 53 46 38 32 30 33 33 32 27 24 20 18 19 19 17 14 12 10 10
8 18 28 37 37 45 43 22 20 38 55 41 45 51 31 43 53 64 65 64 61 59 60 59 61 63 63 62 60 57 52 47 39 36 32 32 34 33 28 23 22 19 19 18 17 17 14 12 12
14 15 28 19 25 24 24 27 22 24 40 43 43 52 35 48 54 64 69 70 67 58 58 55 57 63 63 62 59 56 52 47 43 39 36 33 32 32 28 27 22 21 17 17 17 16 16 15 16
13 14 15 12 27 10 54 10 8 30 53 61 59 52 44 43 58 65 72 74 70 66 58 55 52 60 64 61 56 53 49 48 45 41 38 36 34 34 30 28 22 19 19 19 20 19 18 17 20
10 9 11 14 33 15 22 16 14 44 65 67 75 70 62 50 50 63 70 78 72 69 67 58 50 55 59 59 54 52 48 46 45 43 40 39 35 33 31 30 25 22 24 22 22 21 21 22 24
14 6 7 16 30 9 7 39 33 69 43 62 69 78 75 62 53 51 63 67 82 74 71 65 56 56 55 55 52 49 47 42 40 31 41 38 34 30 31 30 28 27 26 25 24 25 26 26 25
10 10 9 16 11 28 34 42 32 59 56 58 67 70 79 76 66 55 51 60 72 79 72 67 63 57 54 52 51 48 47 44 41 38 40 39 35 33 33 32 34 33 31 31 30 30 29 28 26
7 8 19 29 25 16 18 38 48 62 59 58 55 67 73 77 66 52 54 60 63 73 74 71 70 65 59 60 62 60 55 53 52 45 42 40 35 36 38 36 35 37 38 34 34 33 32 30 23
7 14 14 19 10 24 30 42 45 47 41 67 63 64 70 71 70 60 45 49 66 59 77 71 74 69 62 58 59 64 58 57 55 50 50 44 40 39 41 41 41 40 41 41 40 37 35 30 27
5 8 8 14 30 18 19 17 13 28 43 45 45 57 71 75 69 65 57 53 58 58 52 63 70 63 60 55 50 60 61 60 59 59 57 54 46 45 46 45 44 42 42 43 41 39 32 33 30
7 12 9 23 20 12 11 11 13 51 45 39 60 66 44 65 59 59 58 58 60 63 57 61 59 42 42 53 56 57 60 68 66 60 58 56 53 51 52 52 49 48 46 45 38 35 40 36 35
15 9 26 21 14 17 11 7 9 25 35 46 58 60 63 32 19 38 51 59 60 71 68 53 55 46 17 24 55 57 63 59 66 68 68 61 58 59 61 56 51 48 47 41 38 42 45 42 40
16 14 4 2 3 5 19 7 11 30 24 33 50 60 65 55 37 8 27 51 61 68 68 60 51 34 23 32 35 61 63 62 60 58 57 65 64 63 63 54 54 46 45 47 48 46 41 42 44
8 8 7 11 9 6 11 7 10 27 15 23 34 53 62 59 53 40 2 18 38 46 52 55 43 36 34 33 47 60 61 55 22 22 19 13 31 11 19 26 44 58 50 51 40 24 30 9 6
10 6 6 5 6 9 6 10 8 14 33 39 34 52 63 57 51 45 34 11 11 32 46 52 37 31 29 27 33 32 31 33 30 18 24 16 22 9 21 13 20 12 11 14 8 3 14 12 13
10 6 3 6 2 4 5 11 11 29 28 53 51 60 50 49 38 40 42 33 17 1 22 44 43 35 31 33 37 35 26 23 29 25 12 18 7 9 11 15 27 19 22 24 17 10 7 8 9
4 9 5 5 8 8 9 3 16 37 36 27 42 45 62 57 53 49 40 31 26 17 7 12 35 41 36 34 35 35 29 33 32 21 18 13 21 25 27 20 21 23 31 17 6 1 4 10 8
8 6 7 4 1 4 6 5 7 21 19 20 24 36 45 51 45 39 36 34 26 18 14 20 31 36 41 32 33 42 44 35 29 36 44 43 45 37 29 27 12 7 4 2 1 6 3 2 6
3 3 5 2 8 5 3 9 4 13 31 28 35 40 43 41 39 38 35 32 32 28 31 44 45 45 36 39 39 29 34 33 28 23 24 19 15 12 12 12 12 8 9 9 5 5 5 2 3
Wind_Direction_500mb
313 326 336 331 41 63 264 275 305 315 285 323 221 159 170 88 166 201 159 167 175 173 177 181 181 182 176 168 158 149 162 166 163 163 157 149 141 158 161 163 174 188 212 186 172 155 131 122 114
315 331 330 70 89 17 270 255 347 262 302 110 76 59 37 97 120 150 149 162 176 176 177 180 179 180 176 166 159 160 167 171 172 172 170 162 153 169 182 188 186 199 176 150 146 138 134 129 116
302 320 293 94 112 190 233 234 280 307 296 239 123 81 110 173 171 163 162 161 174 178 180 180 177 177 174 166 161 165 167 166 160 157 161 160 168 191 194 205 207 199 151 135 137 136 135 134 125
282 206 72 105 225 252 254 315 338 338 330 289 151 99 139 206 201 172 164 168 176 180 182 181 179 179 175 167 165 171 169 160 160 158 159 165 173 176 176 176 161 155 140 135 136 140 140 139 139
188 115 68 190 259 243 261 306 337 330 301 303 252 186 165 168 165 180 175 174 179 181 182 181 181 180 177 174 173 178 178 175 171 172 176 180 193 202 203 179 152 154 146 144 143 141 140 140 144
108 92 92 227 231 237 300 321 330 330 325 318 269 149 163 186 203 178 185 178 180 184 181 181 179 181 180 178 180 182 182 178 180 181 188 192 198 202 198 187 168 163 161 160 156 150 151 153 159
116 89 210 253 268 317 28 352 39 329 321 312 201 141 224 197 200 195 179 179 184 187 183 181 179 179 179 179 179 176 174 173 181 189 194 203 206 202 192 186 178 175 173 172 168 171 170 172 183
77 88 131 295 317 288 7 345 338 6 324 327 244 224 232 199 189 180 180 181 189 187 186 182 180 179 180 180 178 177 178 182 192 198 201 201 199 197 193 186 184 184 183 179 181 183 190 201 211
80 65 209 281 341 311 354 0 334 329 323 330 295 272 254 211 190 179 182 182 185 190 191 188 183 182 179 178 182 184 182 190 200 202 208 206 202 196 193 190 194 198 196 193 200 206 214 224 234
73 110 211 45 354 342 309 333 334 335 330 328 325 336 248 205 192 189 186 186 189 191 195 194 189 186 184 186 191 190 197 198 204 213 218 212 199 193 193 200 204 198 199 210 217 225 231 231 228
15 145 342 324 346 334 303 308 324 323 313 315 327 321 243 200 195 198 196 199 198 197 196 199 195 193 190 191 199 200 201 203 212 220 224 220 209 203 207 215 216 210 214 221 229 232 229 231 244
72 34 19 328 327 326 315 309 303 280 269 295 312 320 241 210 206 205 206 202 199 202 202 202 201 199 198 197 202 205 204 210 217 219 224 222 216 215 220 218 217 226 234 231 229 222 233 243 256
50 345 330 318 316 314 308 286 273 279 298 302 297 304 258 236 229 215 215 212 208 206 206 206 208 206 205 205 207 209 214 216 218 221 221 221 220 221 221 222 225 234 234 226 222 229 240 250 263
316 302 310 309 338 328 318 306 321 322 328 319 300 289 287 245 243 226 220 220 217 213 211 210 213 214 212 210 212 216 219 220 224 224 224 224 223 222 230 229 235 230 229 228 231 240 246 255 269
332 356 344 23 357 318 351 348 166 345 333 328 323 310 291 264 247 239 235 224 222 220 212 212 217 215 216 218 217 219 224 226 229 227 225 227 229 226 231 231 233 232 238 240 242 250 258 269 279
30 45 5 329 347 328 11 276 312 323 325 319 315 311 302 285 262 243 236 231 226 223 217 213 213 214 217 221 221 224 226 228 232 234 230 229 230 230 234 237 236 237 241 246 252 258 266 273 280
20 315 305 324 331 310 37 294 302 305 297 299 303 304 298 292 270 255 238 236 233 228 220 216 213 214 218 217 223 231 224 230 227 241 232 229 228 232 238 241 240 240 243 250 256 259 265 272 279
321 330 300 286 282 307 293 283 288 292 284 278 283 289 289 288 274 266 249 234 234 229 224 221 217 215 218 224 226 233 232 231 234 245 240 232 234 235 239 242 241 243 247 251 255 260 263 269 277
271 260 281 289 289 301 265 285 288 290 286 277 268 272 276 279 270 267 253 242 231 230 222 224 219 217 215 220 222 230 233 233 236 241 243 238 241 241 242 244 245 246 250 256 259 259 259 264 273
304 293 294 296 340 307 292 290 283 281 276 272 270 261 264 266 265 258 255 247 235 228 221 223 224 219 216 222 229 235 237 234 238 239 238 240 243 247 246 248 249 251 252 252 253 255 260 269 262
298 251 284 275 321 276 291 285 340 352 327 340 320 286 267 258 256 255 257 255 228 228 220 219 218 217 219 223 233 238 234 236 235 236 239 238 246 249 250 251 251 250 252 253 254 255 259 261 261
294 204 280 306 323 314 48 299 23 345 326 334 352 350 325 263 246 252 259 251 229 218 216 215 212 205 214 225 228 234 244 240 239 239 246 247 251 254 255 254 248 249 251 253 251 256 252 254 254
250 337 293 292 301 314 1 259 300 338 341 337 338 347 11 22 302 257 251 245 234 218 211 202 204 202 202 242 233 237 239 245 245 247 248 249 251 252 254 246 248 253 251 252 250 250 247 248 250
289 296 265 182 258 356 341 299 314 357 324 319 332 352 14 20 20 358 223 227 228 220 214 218 206 207 248 228 244 237 240 239 238 241 243 246 246 251 257 253 248 244 242 241 244 246 249 252 254
325 356 356 8 16 262 13 12 299 341 341 328 332 350 10 23 20 17 35 202 217 218 223 216 225 229 232 229 228 231 235 235 226 209 205 225 223 202 181 222 238 242 238 236 236 232 225 187 171
314 1 94 280 338 294 18 340 298 339 343 344 7 8 17 20 8 16 32 47 189 212 218 222 222 213 212 223 207 208 209 145 136 102 73 20 17 45 8 119 149 169 138 190 212 346 36 32 353
324 43 157 251 154 303 281 316 299 345 350 356 10 354 10 22 29 18 26 34 37 242 221 218 207 205 208 215 225 204 138 90 28 34 317 352 27 12 60 83 70 82 101 77 89 103 71 25 319
247 322 31 358 12 325 326 46 340 346 343 346 346 358 10 16 18 22 30 31 36 36 14 236 214 206 213 189 174 121 87 72 64 76 110 134 142 122 120 111 84 72 71 64 46 136 234 254 277
345 9 357 282 166 312 329 286 309 341 329 326 341 4 11 16 20 30 33 39 46 64 82 127 154 157 153 143 100 107 90 94 99 107 105 117 113 105 107 100 99 112 116 255 59 43 29 329 54
244 341 0 64 327 288 264 277 357 341 340 344 3 10 22 27 31 39 47 61 70 88 104 111 105 96 94 94 101 119 105 102 113 128 130 131 114 155 162 163 167 182 149 142 195 177 193 274 350
Wind_Speed_850mb
16 17 22 4 6 8 5 8 9 14 2 5 2 5 9 6 6 7 17 37 46 54 56 51 47 43 40 35 39 44 40 39 34 33 36 38 31 28 23 21 19 17 16 12 13 11 13 18 19
15 13 9 4 7 4 7 7 10 8 8 20 13 9 8 2 5 15 40 31 49 51 55 49 46 45 41 40 47 43 39 34 28 28 39 38 30 27 22 17 16 15 13 13 18 18 18 19 17
12 10 2 7 5 8 7 4 10 19 15 12 8 7 3 4 8 30 23 37 54 51 52 48 44 44 43 45 43 39 36 29 26 25 42 42 30 28 23 16 15 15 17 17 23 22 20 18 17
3 2 6 6 10 9 5 14 16 25 11 9 11 10 6 8 6 25 34 36 55 51 51 49 47 44 45 51 45 43 39 32 32 32 44 39 33 24 17 13 11 15 18 18 22 24 22 20 17
3 1 5 2 8 5 7 9 23 14 12 13 4 8 3 13 16 20 28 37 49 54 51 50 47 44 46 56 51 48 40 34 35 32 34 32 29 23 17 11 13 15 16 17 19 19 18 16 13
4 4 4 7 9 3 10 17 25 15 22 22 4 14 11 18 15 23 26 38 44 51 53 49 46 44 46 55 51 46 41 40 37 33 29 26 23 20 18 16 14 15 15 15 15 15 15 13 11
10 7 7 5 6 7 4 38 12 20 22 18 5 7 6 24 25 22 33 39 45 51 53 51 47 46 46 51 47 45 45 43 38 29 26 25 23 21 19 17 17 16 15 14 13 12 10 9 8
4 8 2 5 5 7 24 43 20 28 15 23 6 8 9 34 33 30 40 37 42 55 53 51 49 49 48 51 50 47 47 42 33 27 23 22 23 23 21 20 18 17 16 15 13 11 9 9 8
4 8 3 6 5 10 41 23 30 40 22 35 15 11 11 26 39 45 48 45 49 56 55 54 54 53 51 50 49 45 45 38 32 27 21 21 21 23 23 20 19 20 18 14 12 12 12 11 10
9 7 11 4 8 7 13 22 30 26 50 22 27 30 19 32 48 58 60 57 59 62 60 57 56 58 54 49 48 48 46 41 36 28 25 23 19 22 24 20 18 18 17 15 13 13 12 11 9
7 5 8 4 20 35 12 19 36 15 13 11 45 64 26 42 53 61 61 58 58 58 62 61 59 60 59 58 57 55 50 44 37 31 29 28 27 26 26 23 20 18 18 16 14 13 11 10 8
4 11 13 20 40 34 27 24 20 28 32 49 53 44 31 48 58 65 65 65 60 59 60 62 61 61 63 63 63 57 53 46 38 32 30 33 33 32 27 24 20 18 19 19 17 14 12 10 10
8 18 28 37 37 45 43 22 20 38 55 41 45 51 31 43 53 64 65 64 61 59 60 59 61 63 63 62 60 57 52 47 39 36 32 32 34 33 28 23 22 19 19 18 17 17 14 12 12
14 15 28 19 25 24 24 27 22 24 40 43 43 52 35 48 54 64 69 70 67 58 58 55 57 63 63 62 59 56 52 47 43 39 36 33 32 32 28 27 22 21 17 17 17 16 16 15 16
13 14 15 12 27 10 54 10 8 30 53 61 59 52 44 43 58 65 72 74 70 66 58 55 52 60 64 61 56 53 49 48 45 41 38 36 34 34 30 28 22 19 19 19 20 19 18 17 20
10 9 11 14 33 15 22 16 14 44 65 67 75 70 62 50 50 63 70 78 72 69 67 58 50 55 59 59 54 52 48 46 45 43 40 39 35 33 31 30 25 22 24 22 22 21 21 22 24
14 6 7 16 30 9 7 39 33 69 43 62 69 78 75 62 53 51 63 67 82 74 71 65 56 56 55 55 52 49 47 42 40 31 41 38 34 30 31 30 28 27 26 25 24 25 26 26 25
10 10 9 16 11 28 34 42 32 59 56 58 67 70 79 76 66 55 51 60 72 79 72 67 63 57 54 52 51 48 47 44 41 38 40 39 35 33 33 32 34 33 31 31 30 30 29 28 26
7 8 19 29 25 16 18 38 48 62 59 58 55 67 73 77 66 52 54 60 63 73 74 71 70 65 59 60 62 60 55 53 52 45 42 40 35 36 38 36 35 37 38 34 34 33 32 30 23
7 14 14 19 10 24 30 42 45 47 41 67 63 64 70 71 70 60 45 49 66 59 77 71 74 69 62 58 59 64 58 57 55 50 50 44 40 39 41 41 41 40 41 41 40 37 35 30 27
5 8 8 14 30 18 19 17 13 28 43 45 45 57 71 75 69 65 57 53 58 58 52 63 70 63 60 55 50 60 61 60 59 59 57 54 46 45 46 45 44 42 42 43 41 39 32 33 30
7 12 9 23 20 12 11 11 13 51 45 39 60 66 44 65 59 59 58 58 60 63 57 61 59 42 42 53 56 57 60 68 66 60 58 56 53 51 52 52 49 48 46 45 38 35 40 36 35
15 9 26 21 14 17 11 7 9 25 35 46 58 60 63 32 19 38 51 59 60 71 68 53 55 46 17 24 55 57 63 59 66 68 68 61 58 59 61 56 51 48 47 41 38 42 45 42 40
16 14 4 2 3 5 19 7 11 30 24 33 50 60 65 55 37 8 27 51 61 68 68 60 51 34 23 32 35 61 63 62 60 58 57 65 64 63 63 54 54 46 45 47 48 46 41 42 44
8 8 7 11 9 6 11 7 10 27 15 23 34 53 62 59 53 40 2 18 38 46 52 55 43 36 34 33 47 60 61 55 22 22 19 13 31 11 19 26 44 58 50 51 40 24 30 9 6
10 6 6 5 6 9 6 10 8 14 33 39 34 52 63 57 51 45 34 11 11 32 46 52 37 31 29 27 33 32 31 33 30 18 24 16 22 9 21 13 20 12 11 14 8 3 14 12 13
10 6 3 6 2 4 5 11 11 29 28 53 51 60 50 49 38 40 42 33 17 1 22 44 43 35 31 33 37 35 26 23 29 25 12 18 7 9 11 15 27 19 22 24 17 10 7 8 9
4 9 5 5 8 8 9 3 16 37 36 27 42 45 62 57 53 49 40 31 26 17 7 12 35 41 36 34 35 35 29 33 32 21 18 13 21 25 27 20 21 23 31 17 6 1 4 10 8
8 6 7 4 1 4 6 5 7 21 19 20 24 36 45 51 45 39 36 34 26 18 14 20 31 36 41 32 33 42 44 35 29 36 44 43 45 37 29 27 12 7 4 2 1 6 3 2 6
3 3 5 2 8 5 3 9 4 13 31 28 35 40 43 41 39 38 35 32 32 28 31 44 45 45 36 39 39 29 34 33 28 23 24 19 15 12 12 12 12 8 9 9 5 5 5 2 3
Wind_Direction_850mb
313 326 336 331 41 63 264 275 305 315 285 323 221 159 170 88 166 201 159 167 175 173 177 181 181 182 176 168 158 149 162 166 163 163 157 149 141 158 161 163 174 188 212 186 172 155 131 122 114
315 331 330 70 89 17 270 255 347 262 302 110 76 59 37 97 120 150 149 162 176 176 177 180 179 180 176 166 159 160 167 171 172 172 170 162 153 169 182 188 186 199 176 150 146 138 134 129 116
302 320 293 94 112 190 233 234 280 307 296 239 123 81 110 173 171 163 162 161 174 178 180 180 177 177 174 166 161 165 167 166 160 157 161 160 168 191 194 205 207 199 151 135 137 136 135 134 125
282 206 72 105 225 252 254 315 338 338 330 289 151 99 139 206 201 172 164 168 176 180 182 181 179 179 175 167 165 171 169 160 160 158 159 165 173 176 176 176 161 155 140 135 136 140 140 139 139
188 115 68 190 259 243 261 306 337 330 301 303 252 186 165 168 165 180 175 174 179 181 182 181 181 180 177 174 173 178 178 175 171 172 176 180 193 202 203 179 152 154 146 144 143 141 140 140 144
108 92 92 227 231 237 300 321 330 330 325 318 269 149 163 186 203 178 185 178 180 184 181 181 179 181 180 178 180 182 182 178 180 181 188 192 198 202 198 187 168 163 161 160 156 150 151 153 159
116 89 210 253 268 317 28 352 39 329 321 312 201 141 224 197 200 195 179 179 184 187 183 181 179 179 179 179 179 176 174 173 181 189 194 203 206 202 192 186 178 175 173 172 168 171 170 172 183
77 88 131 295 317 288 7 345 338 6 324 327 244 224 232 199 189 180 180 181 189 187 186 182 180 179 180 180 178 177 178 182 192 198 201 201 199 197 193 186 184 184 183 179 181 183 190 201 211
80 65 209 281 341 311 354 0 334 329 323 330 295 272 254 211 190 179 182 182 185 190 191 188 183 182 179 178 182 184 182 190 200 202 208 206 202 196 193 190 194 198 196 193 200 206 214 224 234
73 110 211 45 354 342 309 333 334 335 330 328 325 336 248 205 192 189 186 186 189 191 195 194 189 186 184 186 191 190 197 198 204 213 218 212 199 193 193 200 204 198 199 210 217 225 231 231 228
15 145 342 324 346 334 303 308 324 323 313 315 327 321 243 200 195 198 196 199 198 197 196 199 195 193 190 191 199 200 201 203 212 220 224 220 209 203 207 215 216 210 214 221 229 232 229 231 244
72 34 19 328 327 326 315 309 303 280 269 295 312 320 241 210 206 205 206 202 199 202 202 202 201 199 198 197 202 205 204 210 217 219 224 222 216 215 220 218 217 226 234 231 229 222 233 243 256
50 345 330 318 316 314 308 286 273 279 298 302 297 304 258 236 229 215 215 212 208 206 206 206 208 206 205 205 207 209 214 216 218 221 221 221 220 221 221 222 225 234 234 226 222 229 240 250 263
316 302 310 309 338 328 318 306 321 322 328 319 300 289 287 245 243 226 220 220 217 213 211 210 213 214 212 210 212 216 219 220 224 224 224 224 223 222 230 229 235 230 229 228 231 240 246 255 269
332 356 344 23 357 318 351 348 166 345 333 328 323 310 291 264 247 239 235 224 222 220 212 212 217 215 216 218 217 219 224 226 229 227 225 227 229 226 231 231 233 232 238 240 242 250 258 269 279
30 45 5 329 347 328 11 276 312 323 325 319 315 311 302 285 262 243 236 231 226 223 217 213 213 214 217 221 221 224 226 228 232 234 230 229 230 230 234 237 236 237 241 246 252 258 266 273 280
20 315 305 324 331 310 37 294 302 305 297 299 303 304 298 292 270 255 238 236 233 228 220 216 213 214 218 217 223 231 224 230 227 241 232 229 228 232 238 241 240 240 243 250 256 259 265 272 279
321 330 300 286 282 307 293 283 288 292 284 278 283 289 289 288 274 266 249 234 234 229 224 221 217 215 218 224 226 233 232 231 234 245 240 232 234 235 239 242 241 243 247 251 255 260 263 269 277
271 260 281 289 289 301 265 285 288 290 286 277 268 272 276 279 270 267 253 242 231 230 222 224 219 217 215 220 222 230 233 233 236 241 243 238 241 241 242 244 245 246 250 256 259 259 259 264 273
304 293 294 296 340 307 292 290 283 281 276 272 270 261 264 266 265 258 255 247 235 228 221 223 224 219 216 222 229 235 237 234 238 239 238 240 243 247 246 248 249 251 252 252 253 255 260 269 262
298 251 284 275 321 276 291 285 340 352 327 340 320 286 267 258 256 255 257 255 228 228 220 219 218 217 219 223 233 238 234 236 235 236 239 238 246 249 250 251 251 250 252 253 254 255 259 261 261
294 204 280 306 323 314 48 299 23 345 326 334 352 350 325 263 246 252 259 251 229 218 216 215 212 205 214 225 228 234 244 240 239 239 246 247 251 254 255 254 248 249 251 253 251 256 252 254 254
250 337 293 292 301 314 1 259 300 338 341 337 338 347 11 22 302 257 251 245 234 218 211 202 204 202 202 242 233 237 239 245 245 247 248 249 251 252 254 246 248 253 251 252 250 250 247 248 250
289 296 265 182 258 356 341 299 314 357 324 319 332 352 14 20 20 358 223 227 228 220 214 218 206 207 248 228 244 237 240 239 238 241 243 246 246 251 257 253 248 244 242 241 244 246 249 252 254
325 356 356 8 16 262 13 12 299 341 341 328 332 350 10 23 20 17 35 202 217 218 223 216 225 229 232 229 228 231 235 235 226 209 205 225 223 202 181 222 238 242 238 236 236 232 225 187 171
314 1 94 280 338 294 18 340 298 339 343 344 7 8 17 20 8 16 32 47 189 212 218 222 222 213 212 223 207 208 209 145 136 102 73 20 17 45 8 119 149 169 138 190 212 346 36 32 353
324 43 157 251 154 303 281 316 299 345 350 356 10 354 10 22 29 18 26 34 37 242 221 218 207 205 208 215 225 204 138 90 28 34 317 352 27 12 60 83 70 82 101 77 89 103 71 25 319
247 322 31 358 12 325 326 46 340 346 343 346 346 358 10 16 18 22 30 31 36 36 14 236 214 206 213 189 174 121 87 72 64 76 110 134 142 122 120 111 84 72 71 64 46 136 234 254 277
345 9 357 282 166 312 329 286 309 341 329 326 341 4 11 16 20 30 33 39 46 64 82 127 154 157 153 143 100 107 90 94 99 107 105 117 113 105 107 100 99 112 116 255 59 43 29 329 54
244 341 0 64 327 288 264 277 357 341 340 344 3 10 22 27 31 39 47 61 70 88 104 111 105 96 94 94 101 119 105 102 113 128 130 131 114 155 162 163 167 182 149 142 195 177 193 274 350